Location: ???????
(55.3754°N, 39.3545°E)
Time: 20:58:57
(UTC+00:00)

NOSS 2-1 (D) - Pass Details

Date: 14 April 2026
Orbit: 373 x 1667 km, 63.3° (Epoch: 11 May)

Event Time Altitude Azimuth Distance (km) Brightness Sun altitude
Rises 19:03:03 0° 304° (NW) 2,307 7.8 -18.8°
Reaches altitude 10° 19:05:01 10° 294° (WNW) 1,514 6.4 -18.9°
Maximum altitude 19:08:00 33° 228° (SW) 826 4.1 -19.2°
Enters shadow 19:08:27 32° 212° (SSW) 864 4.1 -19.2°
